www.pogodaiklimat.ru

АРХИВ ПОГОДЫ в Ростове-на-Дону

Время (UTC), дата Ветер
(напр.,м/с)
 
Видим.   Явления Облачность Т
(С)
Тd
(С)
f
(%)
Тe
(С)
Тes
(С)
Комфортность P
(гПа)
Po
(гПа)
Тmin
(С)
Tmax
(С)
R
(мм)
S
(см)
15 14.08 В 3 10 км ясно +35.2 +12.8 26 +35 +36 очень
жарко
1012.7 1004.4 +37.1
18 14.08 СВ 2 10 км ясно +28.2 +13.5 40 +30 +30 жарко 1012.9 1004.4
21 14.08 В 4 10 км ясно +28.5 +11.8 36 +30 +30 жарко 1012.5 1004.0
00 15.08 В 3 10 км ясно +25.9 +12.1 42 +27 +27 жарко 1012.0 1003.5
03 15.08 В 3 10 км ясно +22.5 +13.4 56 +25 +26 комфорт 1012.0 1003.4 +22.1
06 15.08 В 5 10 км ясно +30.5 +14.1 37 +32 +36 жарко 1011.2 1002.8
09 15.08 ЮВ 7-12
{13}
10 км ясно +36.9 +8.8 18 +35 +39 очень
жарко
1009.0 1000.8
12 15.08 В 7-10
{13}
10 км ясно +38.4 +4.9 13 +36 +38 очень
жарко
1006.8 998.6
15 15.08 В 3
{10}
10 км ясно +36.6 +8.5 18 +35 +36 очень
жарко
1005.5 997.3 +38.7
18 15.08 В 4
{10}
10 км ясно +28.2 +10.0 32 +28 +28 жарко 1005.1 996.7
21 15.08 В 3 10 км ясно +24.4 +11.2 44 +26 +26 жарко 1004.7 996.2
00 16.08 В 3 10 км ясно +23.6 +11.4 46 +25 +25 комфорт 1004.3 995.8
03 16.08 ЮЗ 1 10 км 1/0
[Ac trans]
+23.0 +16.3 66 +28 +28 душно 1004.6 996.1 +20.4
06 16.08 ЮЗ 4 10 км ясно +29.2 +21.2 62 +37 +42 очень
душно
1004.6 996.3
09 16.08 ЮЗ 7-10
{10}
10 км 3/3 1000 м
[Cu med, cong]
+32.5 +21.7 53 +41 +44 опасность
перегрева
1004.0 995.8
12 16.08 З 7-10
{11}
10 км 4/4 1500 м
[Cu med, cong]
+33.8 +19.1 42 +39 +41 очень
душно
1003.7 995.5
15 16.08 З 4
{11}
10 км 4/3 1500 м
[Cb calv Ac trans]
+32.5 +16.9 39 +36 +36 очень
душно
1003.5 995.2 +34.3
18 16.08 З 3
{11}
10 км ясно +28.7 +22.6 70 +38 +38 очень
душно
1004.6 996.3
21 16.08 СЗ 3 10 км ясно +27.1 +16.6 53 +31 +31 душно 1005.6 997.2
00 17.08 С 3 10 км 6/0
[Ac trans]
+24.8 +14.6 53 +27 +27 жарко 1007.1 998.6
03 17.08 С 2 10 км 1/0
[Ac trans]
+22.2 +13.0 56 +25 +25 комфорт 1008.1 999.5 +22.0
06 17.08 С 3 10 км 1/0
[Ac trans]
+28.1 +11.3 35 +29 +35 жарко 1008.6 1000.2 +21.6
09 17.08 С 2 10 км 5/0
[Ci sp]
+31.7 +9.7 26 +31 +45 жарко 1008.1 999.8
12 17.08 Ю 2 10 км 6/0
[Ac trans Ci fib]
+33.6 +7.4 20 +32 +39 жарко 1006.6 998.3
15 17.08 С 1 10 км 6/0
[Ac trans]
+32.5 +6.8 20 +31 +32 жарко 1006.1 997.8 +34.4
18 17.08 СВ 3 10 км 8/1 1500 м
[Cb calv Ac trans Ci fib]
+28.9 +7.4 26 +28 +28 жарко 1005.7 997.3
21 17.08 В 4 10 км 6/1 1500 м
[Cb calv Ac trans Ci fib]
+26.1 +9.6 35 +27 +27 жарко 1005.2 996.7
00 18.08 В 6 10 км 5/1 1500 м
[Cb calv Ac trans Ci fib]
+24.7 +9.4 38 +25 +25 комфорт 1004.2 995.7
03 18.08 СВ 8-11
{11}
10 км {гроза} 8/5 1200 м
[Cb calv Ac trans Ci fib]
+22.4 +12.8 55 +25 +25 комфорт 1003.7 995.1 +20.3 0.0
06 18.08 В 10-14
{13}
10 км {гроза, ливн. осадки} 9/5 1200 м
[Cb calv Ac trans Ci fib]
+26.7 +12.3 41 +28 +28 жарко 1002.7 994.3
09 18.08 В 6
{14}
10 км 9/0
[Ac trans Ci fib]
+31.7 +13.7 33 +33 +37 жарко 1002.1 993.8
12 18.08 С 5
{14}
10 км 8/0
[Ac trans Ci fib]
+34.4 +14.7 31 +36 +39 душно 1001.1 992.9
15 18.08 С 6-10
{14}
10 км 8/1 1000 м
[Cu hum Ac trans Ci fib]
+28.5 +16.4 48 +32 +32 душно 1002.3 993.9 +34.7
18 18.08 С 5
{14}
10 км 5/0
[Ac trans]
+23.7 +15.9 62 +27 +27 жарко 1005.3 996.8
21 18.08 С 3 10 км 6/0
[Ac trans]
+20.0 +15.6 76 +23 +23 комфорт 1007.3 998.7
00 19.08 СЗ 1 10 км 8/0
[Ac trans]
+18.8 +15.0 79 +21 +21 комфорт 1008.9 1000.2
03 19.08 СЗ 3 10 км 9/0
[Ac trans Ci fib]
+17.4 +15.1 86 +17 +17 прохладно 1010.3 1001.6 +17.1
06 19.08 СЗ 2 10 км 9/5 700 м
[Sc Ac trans Ci fib]
+21.6 +15.7 69 +25 +27 комфорт 1011.6 1003.0
09 19.08 СЗ 4 10 км 8/4 600 м
[Cu hum Ac trans Ci fib]
+23.2 +15.8 63 +28 +32 душно 1012.8 1004.2
12 19.08 СЗ 4 10 км 9/5 900 м
[Cu med, cong Ac trans]
+22.1 +15.4 66 +26 +28 душно 1013.0 1004.4
15 19.08 СЗ 2 10 км 10/5 1000 м
[Sc Ac und]
+21.8 +14.8 64 +25 +25 комфорт 1013.7 1005.1 +23.4
18 19.08 С 3 10 км 8/4 1000 м
[Sc Ac trans]
+19.6 +14.5 72 +22 +22 комфорт 1015.2 1006.5
21 19.08 СЗ 3 10 км 3/0
[Ac trans]
+17.7 +14.0 79 +18 +18 по сезону 1015.8 1007.0
00 20.08 С 3 10 км ясно +16.2 +13.3 83 +16 +16 по сезону 1015.9 1007.1
03 20.08 С 2 10 км 3/0
[Ac trans]
+15.2 +13.4 89 +15 +15 холодно 1017.1 1008.2 +15.1
06 20.08 С 3 10 км 6/4 300 м
[St Ac trans]
+20.8 +14.8 69 +24 +27 комфорт 1017.3 1008.6
09 20.08 СЗ 2 10 км 4/4 1000 м
[Cu hum]
+26.5 +15.0 49 +29 +38 жарко 1016.7 1008.2
12 20.08 СЗ 4 10 км 6/6 1200 м
[Cu med, cong]
+28.2 +13.5 40 +30 +32 жарко 1015.8 1007.3
15 20.08 С 3 10 км 6/3 1000 м
[Cu hum Ac trans]
+28.0 +12.5 38 +29 +30 жарко 1015.1 1006.6 +29.8
18 20.08 С 3 10 км 4/0
[Ac trans]
+25.3 +13.2 47 +27 +27 жарко 1015.9 1007.3
21 20.08 С 4 10 км 3/0
[Ac trans]
+23.1 +13.0 53 +26 +26 жарко 1016.1 1007.5
00 21.08 С 3 10 км ясно +20.0 +12.9 64 +22 +22 комфорт 1016.1 1007.4
03 21.08 С 2 10 км 1/0
[Ac trans]
+20.7 +13.9 65 +24 +24 комфорт 1016.2 1007.5 +18.4
06 21.08 С 2 10 км 1/0
[Ac trans]
+26.1 +14.9 50 +29 +35 жарко 1016.5 1008.0
09 21.08 СВ 2 10 км 6/6 1200 м
[Cu hum]
+29.2 +11.2 33 +30 +35 жарко 1015.6 1007.1
12 21.08 Ю 3 10 км 6/6 1200 м
[Cu hum]
+30.5 +8.5 25 +30 +33 жарко 1014.5 1006.1

 

Обсудить погоду в Ростове-на-Дону на МЕТЕОФОРУМЕ

 

Местоположение метеостанции Ростов-на-Дону (Ростовская область, Россия): широта 47.27 долгота 39.82 высота над уровнем моря 75 м.

В архиве по умолчанию представлена погода в Ростове-на-Дону за последнюю неделю. Архивные данные за месяц целиком и за предыдущие месяцы, начиная с января 2011 года, Вы можете получить, выбрав интересующий диапазон дат из раскрывающегося списка и нажав кнопку "Ввод!".

Внимание! Время в таблицах - всемирное. Для получения местного времени необходимо прибавить поправку, которая в Ростове-на-Дону равна 4 ч.

Ветер - указаны скорость ветра в м/с - средняя за 10 мин, порывы в срок и между сроками (в фигурных скобках) и направление, откуда дует ветер: С - северный, СВ - северо-восточный, В - восточный, ЮВ - юго-восточный, Ю - южный, ЮЗ - юго-западный, З - западный, СЗ - северо-западный.
Видимость - горизонтальная дальность видимости в метрах или километрах. При видимости от 1 до 10 км при отсутствии осадков обычно наблюдается дымка, при ухудшении видимости до 1 км и менее - туман. В сухую погоду видимость может ухудшаться дымом, пылью или мглою.
Явления - указаны атсосферные явления, наблюдавшиеся в срок или в последний час перед сроком; фигурными скобками обозначены явления, наблюдавшиеся между сроками (за 1-3 часа до срока); квадратными скобками обозначены град или гололедные отложения с указанием их диаметра в мм.
Облачность - указаны через наклонную черту общая и нижняя облачность в баллах и высота нижней границы облаков в метрах; квадратными скобками обозначены формы облаков: Ci - перистые, Cs - перисто-слоистые, Cc - перисто-кучевые, Ac - высококучевые, As - высокослоистые, Sc - слоисто-кучевые, Ns - слоисто-дождевые, Cu - кучевые, Cb - кучево-дождевые. Подробнее классификацию облаков см. в Атласе облаков (PDF).
T - Температура воздуха - температура, измеренная на высоте 2 м над землей.
Td - Температура точки росы - температура, при понижении до которой содержащийся в воздухе водяной пар достигнет насыщения.
f - Относительная влажность воздуха - влажноcть воздуха, измеренная на высоте 2 м над землей.
Te - Эффективная температура - температура, которую ощущает одетый по сезону человек в тени. Характеристика душности погоды. При расчете учитывается влияние влажности воздуха и скорости ветра на теплоощущения человека.
Tes - Эффективная температура на солнце - температура, которую ощущает человек, с поправкой на солнечный нагрев. Характеристика знойности погоды. Зависит от высоты солнца над горизонтом, облачности и скорости ветра. Ночью, в пасмурную погоду, а также при ветре 12 м/с и более поправка равна нулю.
P - Атмосферное давление - приведенное к уровню моря атмосферное давление.
Po - Атмосферное давление - измеренное на уровне метеостанции атмосферное давление.
Tmin - Минимальная температура - минимум температуры воздуха на высоте 2 м над землей.
Tmax - Максимальная температура - максимум температуры воздуха на высоте 2 м над землей.
R - Количество осадков - Количество выпавших осадков, мм.
S - Снежный покров - Высота снежного покрова, см.